This demonstration page uses our WeatherBlox Daily Observations layout. Learn more.

39.29038, -76.61219

Hourly Observations for December 20, 2019

Temp ( °F °C ) Dew Point ( °F °C ) Humidity (%) Winds ( mph kmh ) Pressure ( in mb ) Visibility ( mi km ) Precip ( " mm )
12:54 am 00:54 undefined 28 -2.2 11 -11.7 49 49 undefined N/A 30.45 1031 N/A 0 0
1:54 am 01:54 undefined 28 -2.2 11 -11.7 49 49 undefined N/A 30.48 1032 N/A 0 0
2:54 am 02:54 undefined 27 -2.8 13 -10.6 55 55 undefined N/A 30.49 1032 N/A 0 0
3:54 am 03:54 undefined 26 -3.3 14 -10 60 60 undefined N/A 30.49 1032 N/A 0 0
4:54 am 04:54 undefined 26 -3.3 16 -8.9 66 66 undefined N/A 30.54 1034 N/A 0 0
5:54 am 05:54 undefined 26 -3.3 15 -9.4 63 63 undefined N/A 30.53 1034 N/A 0 0
6:54 am 06:54 undefined 26 -3.3 14 -10 60 60 undefined N/A 30.51 1033 N/A 0 0
7:54 am 07:54 undefined 27 -2.8 14 -10 58 58 undefined N/A 30.55 1035 N/A 0 0
8:54 am 08:54 undefined 32 0 15 -9.4 50 50 undefined N/A 30.63 1037 N/A 0 0
9:54 am 09:54 undefined 33 0.6 14 -10 45 45 undefined N/A 30.62 1037 N/A 0 0
10:54 am 10:54 undefined 34 1.1 14 -10 44 44 undefined N/A 30.63 1037 N/A 0 0
11:54 am 11:54 undefined 35 1.7 15 -9.4 44 44 undefined N/A 30.62 1037 N/A 0 0
12:54 pm 12:54 undefined 37 2.8 16 -8.9 42 42 undefined N/A 30.58 1036 N/A 0 0
1:54 pm 13:54 undefined 38 3.3 16 -8.9 41 41 undefined N/A 30.57 1035 N/A 0 0
2:54 pm 14:54 undefined 38 3.3 16 -8.9 41 41 undefined N/A 30.53 1034 N/A 0 0
3:54 pm 15:54 undefined 38 3.3 16 -8.9 41 41 undefined N/A 30.58 1035 N/A 0 0
4:54 pm 16:54 undefined 37 2.8 16 -8.9 42 42 undefined N/A 30.6 1036 N/A 0 0
5:54 pm 17:54 undefined 36 2.2 17 -8.3 46 46 undefined N/A 30.61 1037 N/A 0 0
6:54 pm 18:54 undefined 35 1.7 16 -8.9 46 46 undefined N/A 30.62 1037 N/A 0 0
7:54 pm 19:54 undefined 34 1.1 15 -9.4 46 46 undefined N/A 30.63 1037 N/A 0 0
8:54 pm 20:54 undefined 34 1.1 16 -8.9 48 48 undefined N/A 30.63 1037 N/A 0 0
9:54 pm 21:54 undefined 33 0.6 15 -9.4 47 47 undefined N/A 30.62 1037 N/A 0 0
10:54 pm 22:54 undefined 33 0.6 16 -8.9 49 49 undefined N/A 30.62 1037 N/A 0 0
11:54 pm 23:54 undefined 32 0 16 -8.9 52 52 undefined N/A 30.61 1037 N/A 0 0

Powered by AerisWeather